Weather in Shuyka

Russia / Mari El Republic     56°11′05″N   47°56′15″E
temp.,
°C
wind,
m/s
gust,
m/s
humid.,
%
clouds,
%
prec.,
mm/h
press.,
hPa
HPBL,
m
27 february, sat
sat2700:00−12se61294100 4.5 998571
03:00−11ese4995100 5.8 997342
06:00−12e4894100 0.4 997345
09:00−11ne4795100 1.1 998394
12:00−10ne4791100 0.4 999613
15:00−11nne5891100 0.6 1002655
18:00−13n51092100 0.2 1004561
21:00−15n41093100 0.2 1006334
28 february, sun
sun2800:00−17nnw41095100 0.0 1006291
03:00−18nnw4109599 0.0 1008290
06:00−20nnw499679 0.0 1009252
09:00−18nnw489471 0.0 1010276
12:00−14nnw479287 0.0 1011420
15:00−12nnw479091 0.0 1012550
18:00−17n239696 0.0 101454
21:00−19n239858 0.0 101731
1 march, mon
mon100:00−21nnw23980 0.0 101821
03:00−22nnw22970 0.0 102020
06:00−23nnw12980 0.0 102120
09:00−18nnw12940 0.0 1022162
12:00−12w128768 0.0 1022381
15:00−10wsw248983 0.0 1021467
18:00−15sw359697 0.0 101998
21:00−14ssw389590 0.0 1017209
2 march, tue
tue200:00−11ssw41095100 0.1 1013326
03:00−9ssw51195100 0.3 1009431
06:00−7ssw51295100 1.3 1004555
09:00−2sw51097100 2.5 1001533
12:000wsw48100100 1.2 999520
15:000w4899100 2.0 998524
18:00−1wnw41097100 0.6 998654
21:00−1nw61296100 2.3 999829
3 march, wed
wed300:00−2nnw61295100 2.1 1000790
03:00−3nnw51292100 2.8 1001754
06:00−5nw4109499 0.1 1002423
09:00−4nw599598 0.3 1004632
12:00−3nnw5992100 0.3 1005749
15:00−3nnw5989100 0.6 1007874
18:00−5nw41090100 0.1 1008537
21:00−9nw3793100 0.2 1010133